Location: Albany
(35.0000°S, 118.0000°E)
Time: 07:04:37
(UTC-04:00)

Amateur Radio Satellites - All Passes

Search period start: 18 April 2014 06:34
Search period end: 19 April 2014 06:34
Location: Albany, 35.0000°S, 118.0000°E

Satellite Date Start Highest point End Downlink Frequencies (MHz)
Time Altitude Azimuth
JAS-2 18 Apr 06:45:58 06:53:25 51° 82° (E) 07:00:07 435.800 - 435.900 CW/SSB, 435.910 FM
Hamsat 18 Apr 07:02:24 07:06:12 31° 252° (WSW) 07:09:56 145.90 MHz
STRAND 1 18 Apr 07:14:16 07:17:53 19° 274° (W) 07:21:32 ?
MaSat-1 18 Apr 07:19:40 07:25:03 64° 289° (WNW) 07:29:34 437.345 MHz
RS-15 18 Apr 07:49:01 08:00:19 49° 231° (SW) 08:12:08 29.354 - 29.394 USB, Beacon 29.352 USB
SO-67 18 Apr 07:53:41 07:56:55 33° 254° (WSW) 08:00:07 435.3500 MHz FM
HO-68 18 Apr 08:14:53 08:20:25 23° 85° (E) 08:25:52 435.675 MHz FM
PANSAT 18 Apr 08:15:51 08:18:32 18° 17° (NNE) 08:21:13 not established
PCSat 18 Apr 08:26:01 08:29:16 16° 131° (SE) 08:32:29 145.825 MHz
JAS-2 18 Apr 08:31:33 08:37:56 29° 244° (WSW) 08:43:51 435.800 - 435.900 CW/SSB, 435.910 FM
Sapphire 18 Apr 09:22:53 09:28:05 43° 121° (ESE) 09:33:12 437.095 MHz 1200 baud AX-25 AFSK
Saudisat 1A 18 Apr 09:53:01 09:56:35 25° 68° (ENE) 10:00:11 436.775 MHz
PANSAT 18 Apr 09:54:50 09:58:17 30° 4° (N) 10:01:45 not established
FUNcube-1 18 Apr 09:54:55 09:58:38 24° 85° (E) 10:02:15 145.950 - 145.970 MHz USB
HO-68 18 Apr 10:01:23 10:08:24 57° 250° (WSW) 10:15:22 435.675 MHz FM
PCSat 18 Apr 10:07:47 10:13:13 71° 294° (WNW) 10:18:35 145.825 MHz
Oscar 11 18 Apr 10:08:29 10:12:52 69° 256° (WSW) 10:17:10 145.825 FM, Beacon 2401.500 USB
RS-15 18 Apr 10:09:42 10:17:00 17° 201° (SSW) 10:24:25 29.354 - 29.394 USB, Beacon 29.352 USB
KITSAT 1 18 Apr 10:46:05 10:53:05 31° 130° (SE) 11:00:02 435.175 FM
Sapphire 18 Apr 11:07:04 11:11:10 22° 286° (WNW) 11:15:14 437.095 MHz 1200 baud AX-25 AFSK
FUNcube-1 18 Apr 11:31:07 11:34:58 27° 250° (WSW) 11:38:43 145.950 - 145.970 MHz USB
Saudisat 1A 18 Apr 11:32:19 11:36:04 27° 233° (SW) 11:39:51 436.775 MHz
PANSAT 18 Apr 11:34:47 11:38:07 27° 351° (N) 11:41:27 not established
AO-27 18 Apr 11:59:06 11:59:23 10° 119° (ESE) 11:59:40 436.795 MHz FM
ITAMSAT 1 18 Apr 12:08:01 12:10:18 13° 118° (ESE) 12:12:36 435.822 SSB
Oscar 19 18 Apr 12:13:26 12:17:49 28° 111° (ESE) 12:22:13 437.125 CW, 437.150 USB
Oscar 16 18 Apr 12:21:03 12:25:47 36° 110° (ESE) 12:30:32 437.025 USB, Beacon 2401.1428
AO-Echo 18 Apr 12:27:30 12:29:55 14° 116° (ESE) 12:32:21 ?
RS-15 18 Apr 12:30:07 12:37:03 16° 162° (SSE) 12:43:56 29.354 - 29.394 USB, Beacon 29.352 USB
KITSAT 1 18 Apr 12:40:57 12:48:52 58° 292° (WNW) 12:56:44 435.175 FM
Uribyol 2 18 Apr 12:53:46 12:58:36 39° 109° (ESE) 13:03:30 436.500 FM
PANSAT 18 Apr 13:15:59 13:17:49 13° 339° (NNW) 13:19:38 not established
Gurwin Techsat 1B 18 Apr 13:19:59 13:23:46 20° 114° (ESE) 13:27:35 435.225 FM
AO-27 18 Apr 13:32:50 13:38:04 88° 284° (WNW) 13:43:23 436.795 MHz FM
OPAL 18 Apr 13:36:18 13:37:16 11° 87° (E) 13:38:14 ?
ITAMSAT 1 18 Apr 13:43:55 13:49:07 71° 282° (WNW) 13:54:24 435.822 SSB
Oscar 19 18 Apr 13:52:30 13:57:01 30° 277° (W) 14:01:35 437.125 CW, 437.150 USB
SO-50 18 Apr 13:55:13 13:58:11 16° 72° (ENE) 14:01:10 436.795 FM
JAS-1B 18 Apr 14:00:17 14:06:02 26° 121° (ESE) 14:12:36 435.800 - 435.900 CW/SSB
Oscar 16 18 Apr 14:01:05 14:05:10 23° 275° (W) 14:09:17 437.025 USB, Beacon 2401.1428
AO-Echo 18 Apr 14:03:29 14:08:08 55° 280° (W) 14:12:57 ?
TMSAT-1 18 Apr 14:07:35 14:12:31 40° 109° (ESE) 14:17:31 436.925 FM
ISS 18 Apr 14:13:17 14:16:23 35° 48° (NE) 14:19:31 145.800 FM
Uosat F 18 Apr 14:22:28 14:26:02 20° 114° (ESE) 14:29:38 435.120 FM
Uribyol 2 18 Apr 14:34:12 14:38:09 22° 275° (W) 14:42:10 436.500 FM
RS-15 18 Apr 14:42:34 14:54:11 44° 131° (SE) 15:05:22 29.354 - 29.394 USB, Beacon 29.352 USB
Oscar 10/S400 18 Apr 14:46:17 14:54:05 13° 329° (NNW) 15:03:01 145.825 - 145.975 CW/USB, Beacon 145.810 USB
Gurwin Techsat 1B 18 Apr 14:58:16 15:03:21 45° 279° (W) 15:08:30 435.225 FM
AO-7 18 Apr 14:58:27 15:06:13 44° 115° (ESE) 15:14:01 29.400 - 29.500 MHz
OPAL 18 Apr 15:11:35 15:16:35 70° 253° (WSW) 15:21:31 ?
AO-40 18 Apr 15:17:17 21:57:28 59° 4° (N) 02:51:15 Beacon 2401.320
SO-50 18 Apr 15:33:39 15:38:20 49° 237° (WSW) 15:43:04 436.795 FM
TMSAT-1 18 Apr 15:48:32 15:52:32 22° 274° (W) 15:56:35 436.925 FM
JAS-1B 18 Apr 15:49:01 15:55:47 59° 279° (W) 16:04:01 435.800 - 435.900 CW/SSB
ISS 18 Apr 15:50:29 15:53:12 22° 213° (SSW) 15:55:56 145.800 FM
Uosat F 18 Apr 15:59:43 16:04:28 42° 279° (W) 16:09:17 435.120 FM
UOSAT-12 18 Apr 16:23:54 16:27:43 27° 68° (ENE) 16:31:30 437.025 FM, 437.400 FM
AO-7 18 Apr 16:51:22 16:58:56 38° 279° (W) 17:06:38 29.400 - 29.500 MHz
RS-15 18 Apr 16:55:13 17:06:54 55° 290° (WNW) 17:18:09 29.354 - 29.394 USB, Beacon 29.352 USB
JAS-2 18 Apr 16:55:43 17:00:08 18° 122° (ESE) 17:04:45 435.800 - 435.900 CW/SSB, 435.910 FM
STRAND 1 18 Apr 17:48:40 17:52:19 19° 86° (E) 17:55:56 ?
Hamsat 18 Apr 17:51:45 17:56:07 69° 281° (W) 18:00:32 145.90 MHz
UOSAT-12 18 Apr 18:03:50 18:07:45 28° 233° (SW) 18:11:39 437.025 FM, 437.400 FM
SO-67 18 Apr 18:23:51 18:27:12 42° 105° (ESE) 18:30:36 435.3500 MHz FM
Saudisat 1A 18 Apr 18:24:44 18:25:36 11° 136° (SE) 18:26:29 436.775 MHz
JAS-2 18 Apr 18:37:08 18:43:59 85° 283° (WNW) 18:51:42 435.800 - 435.900 CW/SSB, 435.910 FM
HO-68 18 Apr 18:43:02 18:46:06 13° 124° (SE) 18:49:10 435.675 MHz FM
STRAND 1 18 Apr 19:26:44 19:31:39 43° 251° (WSW) 19:36:31 ?
MaSat-1 18 Apr 19:41:03 19:43:58 15° 82° (E) 19:47:05 437.345 MHz
Saudisat 1A 18 Apr 20:01:20 20:05:49 88° 299° (WNW) 20:10:17 436.775 MHz
Oscar 10/S400 18 Apr 20:21:01 00:06:47 33° 74° (ENE) 01:32:11 145.825 - 145.975 CW/USB, Beacon 145.810 USB
HO-68 18 Apr 20:25:25 20:32:37 79° 107° (ESE) 20:39:53 435.675 MHz FM
JAS-2 18 Apr 20:27:27 20:30:07 12° 266° (W) 20:32:53 435.800 - 435.900 CW/SSB, 435.910 FM
ISS 18 Apr 20:45:27 20:47:29 15° 152° (SSE) 20:49:30 145.800 FM
FUNcube-1 18 Apr 20:49:22 20:51:54 15° 114° (ESE) 20:54:27 145.950 - 145.970 MHz USB
Oscar 11 18 Apr 20:59:59 21:04:19 60° 105° (ESE) 21:08:42 145.825 FM, Beacon 2401.500 USB
MaSat-1 18 Apr 21:16:44 21:21:48 61° 244° (WSW) 21:27:34 437.345 MHz
HO-68 18 Apr 22:16:50 22:20:56 16° 272° (W) 22:25:03 435.675 MHz FM
ISS 18 Apr 22:21:11 22:24:34 71° 316° (NW) 22:27:54 145.800 FM
FUNcube-1 18 Apr 22:23:25 22:27:49 49° 279° (W) 22:32:22 145.950 - 145.970 MHz USB
PCSat 18 Apr 23:04:09 23:08:24 24° 74° (ENE) 23:12:41 145.825 MHz
Sapphire 19 Apr 00:01:02 00:06:26 78° 66° (ENE) 00:11:53 437.095 MHz 1200 baud AX-25 AFSK
SO-50 19 Apr 00:08:43 00:13:23 60° 122° (ESE) 00:17:54 436.795 FM
Oscar 19 19 Apr 00:30:09 00:32:12 12° 89° (E) 00:34:14 437.125 CW, 437.150 USB
Oscar 16 19 Apr 00:37:16 00:40:29 16° 87° (E) 00:43:41 437.025 USB, Beacon 2401.1428
PCSat 19 Apr 00:46:29 00:51:33 39° 238° (WSW) 00:56:39 145.825 MHz
OPAL 19 Apr 00:46:53 00:49:56 16° 117° (ESE) 00:52:58 ?
UOSAT-12 19 Apr 00:58:14 00:59:28 11° 135° (SE) 01:00:42 437.025 FM, 437.400 FM
Uribyol 2 19 Apr 01:10:54 01:14:29 18° 86° (E) 01:18:01 436.500 FM
KITSAT 1 19 Apr 01:11:19 01:17:59 30° 74° (ENE) 01:24:41 435.175 FM
Sapphire 19 Apr 01:47:31 01:50:28 15° 228° (SW) 01:53:26 437.095 MHz 1200 baud AX-25 AFSK
AO-27 19 Apr 01:49:33 01:54:37 44° 81° (E) 01:59:35 436.795 MHz FM
SO-50 19 Apr 01:51:41 01:53:21 12° 287° (WNW) 01:55:01 436.795 FM
ITAMSAT 1 19 Apr 02:00:20 02:05:33 56° 79° (E) 02:10:40 435.822 SSB
Oscar 19 19 Apr 02:06:48 02:11:56 64° 254° (WSW) 02:17:00 437.125 CW, 437.150 USB
AO-Echo 19 Apr 02:13:32 02:18:50 63° 79° (E) 02:24:07 ?
Oscar 16 19 Apr 02:15:05 02:20:04 49° 252° (WSW) 02:25:00 437.025 USB, Beacon 2401.1428
OPAL 19 Apr 02:23:14 02:28:19 57° 283° (WNW) 02:33:24 ?
TMSAT-1 19 Apr 02:27:32 02:31:32 21° 86° (E) 02:35:29 436.925 FM
UOSAT-12 19 Apr 02:35:43 02:40:09 81° 298° (WNW) 02:44:34 437.025 FM, 437.400 FM
Uribyol 2 19 Apr 02:49:06 02:54:08 46° 252° (WSW) 02:59:05 436.500 FM
KITSAT 1 19 Apr 03:05:06 03:12:55 54° 237° (WSW) 03:20:50 435.175 FM
AO-7 19 Apr 03:06:02 03:10:31 15° 88° (E) 03:14:56 29.400 - 29.500 MHz
Gurwin Techsat 1B 19 Apr 03:17:38 03:23:03 86° 256° (WSW) 03:28:23 435.225 FM
AO-27 19 Apr 03:29:57 03:33:45 20° 246° (WSW) 03:37:31 436.795 MHz FM
JAS-1B 19 Apr 03:36:55 03:46:49 62° 80° (E) 03:56:03 435.800 - 435.900 CW/SSB
ITAMSAT 1 19 Apr 03:41:19 03:44:31 16° 244° (WSW) 03:47:41 435.822 SSB
AO-Echo 19 Apr 03:54:08 03:57:01 15° 244° (WSW) 03:59:55 ?
TMSAT-1 19 Apr 04:06:33 04:11:34 41° 251° (WSW) 04:16:31 436.925 FM
Uosat F 19 Apr 04:10:28 04:15:37 79° 77° (ENE) 04:20:41 435.120 FM
AO-7 19 Apr 04:55:43 05:04:10 89° 252° (WSW) 05:12:29 29.400 - 29.500 MHz
STRAND 1 19 Apr 05:01:40 05:05:24 21° 114° (ESE) 05:09:10 ?
RS-15 19 Apr 05:02:14 05:12:17 35° 76° (ENE) 05:22:40 29.354 - 29.394 USB, Beacon 29.352 USB
KITSAT 1 19 Apr 05:07:16 05:10:22 12° 214° (SW) 05:13:28 435.175 FM
JAS-1B 19 Apr 05:28:05 05:36:34 34° 243° (WSW) 05:44:47 435.800 - 435.900 CW/SSB
Hamsat 19 Apr 05:41:41 05:45:17 26° 84° (E) 05:48:49 145.90 MHz
MaSat-1 19 Apr 05:46:42 05:50:59 23° 126° (SE) 05:54:49 437.345 MHz
Uosat F 19 Apr 05:52:21 05:53:40 11° 242° (WSW) 05:54:58 435.120 FM
JAS-2 19 Apr 05:52:50 05:57:53 19° 91° (E) 06:02:35 435.800 - 435.900 CW/SSB, 435.910 FM
